START_TIME,STEP,MOV.,M34,t_acc.,L5,t_acc.,L18,t_acc.,L14,t_acc.
1979-08-02 09:00:23.530 ,0,0,0.,12.0,0.,12.0,0.,12.0,0.,12.0
1979-08-02 09:00:35.530 ,0,0,0.,12.0,0.,12.0,0.,12.0,0.,12.0
1979-08-02 09:00:47.530 ,0,1,,0,,0,,0,,0
1979-08-02 09:00:59.530 ,0,1,0.,12.0,0.,12.0,0.,12.0,0.,12.0
1979-08-02 09:01:11.520 ,0,0,0.,12.0,0.,12.0,0.,12.0,0.,12.0
1979-08-02 09:01:23.530 ,0,0,0.,12.0,0.,12.0,0.,12.0,0.,12.0
1979-08-02 09:01:35.520 ,1,1,0.,12.0,0.,12.0,0.,12.0,0.,12.0
1979-08-02 09:01:47.530 ,1,1,0.,12.0,0.,12.0,0.,12.0,0.,12.0
1979-08-02 09:01:59.530 ,1,0,0.,12.0,0.,12.0,0.,12.0,0.,12.0
1979-08-02 09:02:11.530 ,1,0,0.,12.0,0.,12.0,0.,12.0,0.,12.0
1979-08-02 09:02:23.520 ,2,1,0.,12.0,0.,12.0,0.,12.0,0.,12.0
1979-08-02 09:02:35.530 ,2,1,0.,12.0,0.,12.0,0.,12.0,0.,12.0
1979-08-02 09:02:47.520 ,2,0,0.,12.0,0.,12.0,0.,12.0,0.,12.0
1979-08-02 09:02:59.530 ,2,0,0.,12.0,0.,12.0,0.,12.0,0.,12.0
1979-08-02 09:03:11.520 ,3,1,0.,12.0,0.,12.0,0.,12.0,0.,12.0
1979-08-02 09:03:23.530 ,3,1,0.,12.0,0.,12.0,0.,12.0,0.,12.0
1979-08-02 09:03:35.520 ,3,0,0.,12.0,0.,12.0,0.,12.0,0.,12.0
1979-08-02 09:03:47.530 ,3,0,0.,12.0,0.,12.0,0.,12.0,0.,12.0
1979-08-02 09:03:59.520 ,4,1,0.,12.0,0.,12.0,0.,12.0,0.,12.0
1979-08-02 09:04:11.530 ,4,1,0.,12.0,0.,12.0,0.,12.0,0.,12.0
1979-08-02 09:04:23.530 ,0,0,0.,12.0,0.,12.0,0.,12.0,0.,12.0
1979-08-02 09:04:35.530 ,0,0,0.,12.0,0.,12.0,0.,12.0,0.,12.0
1979-08-02 09:04:47.530 ,5,1,0.,12.0,0.,12.0,0.,12.0,0.,12.0
1979-08-02 09:04:59.530 ,5,1,0.,12.0,0.,12.0,0.,12.0,0.,12.0
1979-08-02 09:05:11.530 ,5,0,0.,12.0,0.,12.0,0.,12.0,0.,12.0
1979-08-02 09:05:23.530 ,5,0,0.,12.0,0.,12.0,0.,12.0,0.,12.0
1979-08-02 09:05:35.530 ,6,1,0.,12.0,0.,12.0,0.,12.0,0.,12.0
1979-08-02 09:05:47.530 ,6,1,0.,12.0,0.,12.0,0.,12.0,0.,12.0
1979-08-02 09:05:59.530 ,6,0,0.,12.0,0.,12.0,0.,12.0,0.,12.0
1979-08-02 09:06:11.530 ,6,0,0.,12.0,0.,12.0,0.,12.0,0.,12.0
1979-08-02 09:06:23.530 ,7,0,0.,12.0,0.,12.0,0.,12.0,0.,12.0
1979-08-02 09:06:35.530 ,7,0,,0,,0,,0,,0
1979-08-02 09:06:47.530 ,7,0,0.,12.0,0.,12.0,0.,12.0,0.,12.0
1979-08-02 09:06:59.530 ,7,0,,0,,0,,0,,0
1979-08-02 09:07:11.530 ,4,1,0.,12.0,0.,12.0,0.,12.0,0.,12.0
1979-08-02 09:07:23.530 ,4,1,0.,12.0,0.,12.0,0.,12.0,0.,12.0
1979-08-02 09:07:35.530 ,0,1,0.,12.0,0.,12.0,0.,12.0,0.,12.0
1979-08-02 09:07:47.530 ,0,1,0.,12.0,0.,12.0,0.,12.0,0.,12.0
1979-08-02 09:07:59.530 ,3,1,0.,12.0,0.,12.0,0.,12.0,0.,12.0
1979-08-02 09:08:11.530 ,3,1,0.,12.0,0.,12.0,0.,12.0,0.,12.0
1979-08-02 09:08:23.530 ,7,1,0.,12.0,0.,12.0,0.,12.0,0.,12.0
1979-08-02 09:08:35.530 ,7,1,0.,12.0,0.,12.0,0.,12.0,0.,12.0
1979-08-02 09:08:47.530 ,4,1,0.,12.0,0.,12.0,0.,12.0,0.,12.0
1979-08-02 09:08:59.530 ,4,1,0.,12.0,0.,12.0,0.,12.0,0.,12.0
1979-08-02 09:09:11.530 ,0,1,0.,12.0,0.,12.0,0.,12.0,0.,12.0
1979-08-02 09:09:23.530 ,0,1,0.,12.0,0.,12.0,0.,12.0,0.,12.0
1979-08-02 09:09:35.530 ,3,1,0.,12.0,0.,12.0,0.,12.0,0.,12.0
1979-08-02 09:09:47.530 ,3,1,0.,12.0,0.,12.0,0.,12.0,0.,12.0
1979-08-02 09:09:59.530 ,7,1,0.,12.0,0.,12.0,0.,12.0,0.,12.0
1979-08-02 09:10:11.530 ,7,1,0.,12.0,0.,12.0,0.,12.0,0.,12.0
1979-08-02 09:10:23.530 ,4,1,0.,12.0,0.,12.0,0.,12.0,0.,12.0
1979-08-02 09:10:35.530 ,4,1,0.,12.0,0.,12.0,0.,12.0,0.,12.0
1979-08-02 09:10:47.530 ,0,1,0.,12.0,0.,12.0,0.,12.0,0.,12.0
1979-08-02 09:10:59.530 ,0,1,0.,12.0,0.,12.0,0.,12.0,0.,12.0
1979-08-02 09:11:11.530 ,3,1,0.,12.0,0.,12.0,0.,12.0,0.,12.0
1979-08-02 09:11:23.530 ,3,1,0.,12.0,0.,12.0,0.,12.0,0.,12.0
1979-08-02 09:11:35.530 ,7,1,0.,12.0,0.,12.0,0.,12.0,0.,12.0
1979-08-02 09:11:47.530 ,7,1,0.,12.0,0.,12.0,0.,12.0,0.,12.0
1979-08-02 09:11:59.530 ,4,1,0.,12.0,0.,12.0,0.,12.0,0.,12.0
1979-08-02 09:12:11.530 ,4,1,0.,12.0,0.,12.0,0.,12.0,0.,12.0
1979-08-02 09:12:23.530 ,0,1,0.,12.0,0.,12.0,0.,12.0,0.,12.0
1979-08-02 09:12:35.530 ,0,1,0.,12.0,0.,12.0,0.,12.0,0.,12.0
1979-08-02 09:12:47.530 ,3,1,0.,12.0,0.,12.0,0.,12.0,0.,12.0
1979-08-02 09:12:59.530 ,3,1,0.,12.0,0.,12.0,0.,12.0,0.,12.0
1979-08-02 09:13:11.530 ,7,1,0.,12.0,0.,12.0,0.,12.0,0.,12.0
1979-08-02 09:13:23.530 ,7,1,0.,12.0,0.,12.0,0.,12.0,0.,12.0
1979-08-02 09:13:35.530 ,4,1,0.,12.0,0.,12.0,0.,12.0,0.,12.0
1979-08-02 09:13:47.530 ,4,1,0.,12.0,0.,12.0,0.,12.0,0.,12.0
1979-08-02 09:13:59.530 ,0,1,0.,12.0,0.,12.0,0.,12.0,0.,12.0
1979-08-02 09:14:11.530 ,0,1,0.,12.0,0.,12.0,0.,12.0,0.,12.0
1979-08-02 09:14:23.530 ,3,1,0.,12.0,0.,12.0,0.,12.0,0.,12.0
1979-08-02 09:14:35.530 ,3,1,0.,12.0,0.,12.0,0.,12.0,0.,12.0
1979-08-02 09:14:47.530 ,7,1,0.,12.0,0.,12.0,0.,12.0,0.,12.0
1979-08-02 09:14:59.530 ,7,1,0.,12.0,0.,12.0,0.,12.0,0.,12.0
1979-08-02 09:15:11.530 ,4,1,0.,12.0,0.,12.0,0.,12.0,0.,12.0
1979-08-02 09:15:23.530 ,4,1,0.,12.0,0.,12.0,0.,12.0,0.,12.0
1979-08-02 09:15:35.530 ,0,1,0.,12.0,0.,12.0,0.,12.0,0.,12.0
1979-08-02 09:15:47.530 ,0,1,0.,12.0,0.,12.0,0.,12.0,0.,12.0
1979-08-02 09:15:59.530 ,3,1,0.,12.0,0.,12.0,0.,12.0,0.,12.0
1979-08-02 09:16:11.530 ,3,1,0.,12.0,0.,12.0,0.,12.0,0.,12.0
1979-08-02 09:16:23.530 ,7,1,0.,12.0,0.,12.0,0.,12.0,0.,12.0
1979-08-02 09:16:35.530 ,7,1,0.,12.0,0.,12.0,0.,12.0,0.,12.0
1979-08-02 09:16:47.530 ,4,1,0.,12.0,0.,12.0,0.,12.0,0.,12.0
1979-08-02 09:16:59.530 ,4,1,0.,12.0,0.,12.0,0.,12.0,0.,12.0
1979-08-02 09:17:11.520 ,0,1,0.,12.0,0.,12.0,0.,12.0,0.,12.0
1979-08-02 09:17:23.520 ,0,1,0.,12.0,0.,12.0,0.,12.0,0.,12.0
1979-08-02 09:17:35.520 ,0,0,0.,12.0,0.,12.0,0.,12.0,0.,12.0
1979-08-02 09:17:47.520 ,0,0,0.,12.0,0.,12.0,0.,12.0,0.,12.0
1979-08-02 09:17:59.520 ,0,0,0.,12.0,0.,12.0,0.,12.0,0.,12.0
1979-08-02 09:18:11.520 ,0,0,0.,12.0,0.,12.0,0.,12.0,0.,12.0
1979-08-02 09:18:23.520 ,5,1,0.,12.0,0.,12.0,0.,12.0,0.,12.0
1979-08-02 09:18:35.520 ,5,1,0.,12.0,0.,12.0,0.,12.0,0.,12.0
1979-08-02 09:18:47.520 ,5,0,0.,12.0,0.,12.0,0.,12.0,0.,12.0
1979-08-02 09:18:59.520 ,5,0,0.,12.0,0.,12.0,0.,12.0,0.,12.0
1979-08-02 09:19:11.520 ,4,1,0.,12.0,0.,12.0,0.,12.0,0.,12.0
1979-08-02 09:19:23.520 ,4,1,0.,12.0,0.,12.0,0.,12.0,0.,12.0
1979-08-02 09:19:35.520 ,4,0,0.,12.0,0.,12.0,0.,12.0,0.,12.0
1979-08-02 09:19:47.520 ,4,0,0.,12.0,0.,12.0,0.,12.0,0.,12.0
1979-08-02 09:19:59.520 ,3,1,0.,12.0,0.,12.0,0.,12.0,0.,12.0
1979-08-02 09:20:11.520 ,3,1,0.,12.0,0.,12.0,0.,12.0,0.,12.0
1979-08-02 09:20:23.520 ,3,0,0.,12.0,0.,12.0,0.,12.0,0.,12.0
1979-08-02 09:20:35.520 ,3,0,0.,12.0,0.,12.0,0.,12.0,0.,12.0
1979-08-02 09:20:47.520 ,2,1,0.,12.0,0.,12.0,0.,12.0,0.,12.0
1979-08-02 09:20:59.520 ,2,1,0.,12.0,0.,12.0,0.,12.0,0.,12.0
1979-08-02 09:21:11.520 ,2,0,0.,12.0,0.,12.0,0.,12.0,0.,12.0
1979-08-02 09:21:23.520 ,2,0,0.,12.0,0.,12.0,0.,12.0,0.,12.0
1979-08-02 09:21:35.520 ,1,1,0.,12.0,0.,12.0,0.,12.0,0.,12.0
1979-08-02 09:21:47.520 ,1,1,0.,12.0,0.,12.0,0.,12.0,0.,12.0
1979-08-02 09:21:59.520 ,1,0,0.,12.0,0.,12.0,0.,12.0,0.,12.0
1979-08-02 09:22:11.520 ,1,0,0.,12.0,0.,12.0,0.,12.0,0.,12.0
1979-08-02 09:22:23.520 ,0,1,0.,12.0,0.,12.0,0.,12.0,0.,12.0
1979-08-02 09:22:35.520 ,0,1,0.,12.0,0.,12.0,0.,12.0,0.,12.0
1979-08-02 09:22:47.520 ,0,0,0.,12.0,0.,12.0,0.,12.0,0.,12.0
1979-08-02 09:22:59.520 ,0,0,0.,12.0,0.,12.0,0.,12.0,0.,12.0
1979-08-02 09:23:11.520 ,0,1,0.,12.0,0.,12.0,0.,12.0,0.,12.0
1979-08-02 09:23:23.520 ,0,1,0.,12.0,0.,12.0,0.,12.0,0.,12.0
1979-08-02 09:23:35.520 ,0,0,0.,12.0,0.,12.0,0.,12.0,0.,12.0
1979-08-02 09:23:47.520 ,0,0,0.,12.0,0.,12.0,0.,12.0,0.,12.0
1979-08-02 09:23:59.520 ,1,1,0.,12.0,0.,12.0,0.,12.0,0.,12.0
1979-08-02 09:24:11.520 ,1,1,0.,12.0,0.,12.0,0.,12.0,0.,12.0
1979-08-02 09:24:23.520 ,1,0,0.,12.0,0.,12.0,0.,12.0,0.,12.0
1979-08-02 09:24:35.520 ,1,0,0.,12.0,0.,12.0,0.,12.0,0.,12.0
1979-08-02 09:24:47.520 ,2,1,0.,12.0,0.,12.0,0.,12.0,0.,12.0
1979-08-02 09:24:59.520 ,2,1,0.,12.0,0.,12.0,0.,12.0,0.,12.0
1979-08-02 09:25:11.520 ,2,0,0.,12.0,0.,12.0,0.,12.0,0.,12.0
1979-08-02 09:25:23.520 ,2,0,0.,12.0,0.,12.0,0.,12.0,0.,12.0
1979-08-02 09:25:35.520 ,3,1,0.,12.0,0.,12.0,0.,12.0,0.,12.0
1979-08-02 09:25:47.520 ,3,1,1.,12.0,0.,12.0,0.,12.0,0.,12.0
1979-08-02 09:25:59.520 ,3,0,0.,12.0,0.,12.0,0.,12.0,0.,12.0
1979-08-02 09:26:11.520 ,3,0,0.,12.0,0.,12.0,0.,12.0,0.,12.0
1979-08-02 09:26:23.520 ,4,1,0.,12.0,0.,12.0,0.,12.0,0.,12.0
1979-08-02 09:26:35.520 ,4,1,0.,12.0,0.,12.0,0.,12.0,0.,12.0
1979-08-02 09:26:47.520 ,4,0,0.,12.0,0.,12.0,0.,12.0,0.,12.0
1979-08-02 09:26:59.520 ,4,0,0.,12.0,0.,12.0,0.,12.0,0.,12.0
1979-08-02 09:27:11.520 ,5,1,0.,12.0,0.,12.0,0.,12.0,0.,12.0
1979-08-02 09:27:23.520 ,5,1,0.,12.0,0.,12.0,0.,12.0,0.,12.0
1979-08-02 09:27:35.520 ,5,0,0.,12.0,0.,12.0,0.,12.0,0.,12.0
1979-08-02 09:27:47.520 ,5,0,0.,12.0,0.,12.0,0.,12.0,0.,12.0
1979-08-02 09:27:59.520 ,6,1,0.,12.0,0.,12.0,0.,12.0,0.,12.0
1979-08-02 09:28:11.520 ,6,1,0.,12.0,0.,12.0,0.,12.0,0.,12.0
1979-08-02 09:28:23.520 ,6,0,0.,12.0,0.,12.0,0.,12.0,0.,12.0
1979-08-02 09:28:35.520 ,6,0,0.,12.0,0.,12.0,0.,12.0,0.,12.0
1979-08-02 09:28:47.520 ,7,1,0.,12.0,0.,12.0,0.,12.0,0.,12.0
1979-08-02 09:28:59.520 ,7,1,0.,12.0,0.,12.0,0.,12.0,0.,12.0
1979-08-02 09:29:11.520 ,7,0,0.,12.0,0.,12.0,0.,12.0,0.,12.0
1979-08-02 09:29:23.520 ,7,0,0.,12.0,0.,12.0,0.,12.0,0.,12.0
1979-08-02 09:29:35.520 ,7,1,0.,12.0,0.,12.0,0.,12.0,0.,12.0
1979-08-02 09:29:47.520 ,7,1,0.,12.0,0.,12.0,0.,12.0,0.,12.0
1979-08-02 09:29:59.520 ,7,0,0.,12.0,0.,12.0,0.,12.0,0.,12.0
1979-08-02 09:30:11.520 ,7,0,0.,12.0,0.,12.0,0.,12.0,0.,12.0
1979-08-02 09:30:23.520 ,6,1,0.,12.0,0.,12.0,0.,12.0,0.,12.0
1979-08-02 09:30:35.520 ,6,1,0.,12.0,0.,12.0,0.,12.0,0.,12.0
1979-08-02 09:30:47.520 ,6,0,0.,12.0,0.,12.0,0.,12.0,0.,12.0
1979-08-02 09:30:59.520 ,6,0,1.,12.0,0.,12.0,0.,12.0,0.,12.0
1979-08-02 09:31:11.520 ,0,0,0.,12.0,0.,12.0,0.,12.0,0.,12.0
1979-08-02 09:31:23.520 ,0,0,0.,12.0,0.,12.0,0.,12.0,0.,12.0
1979-08-02 09:31:35.520 ,0,0,0.,12.0,0.,12.0,0.,12.0,0.,12.0
1979-08-02 09:31:47.520 ,0,0,0.,12.0,0.,12.0,0.,12.0,0.,12.0
1979-08-02 09:31:59.520 ,4,1,0.,12.0,0.,12.0,0.,12.0,0.,12.0
1979-08-02 09:32:11.520 ,4,1,0.,12.0,0.,12.0,0.,12.0,0.,12.0
1979-08-02 09:32:23.520 ,4,0,0.,12.0,0.,12.0,0.,12.0,0.,12.0
1979-08-02 09:32:35.520 ,4,0,0.,12.0,0.,12.0,0.,12.0,0.,12.0
1979-08-02 09:32:47.520 ,3,1,0.,12.0,0.,12.0,0.,12.0,0.,12.0
1979-08-02 09:32:59.520 ,3,1,0.,12.0,0.,12.0,0.,12.0,0.,12.0
1979-08-02 09:33:11.520 ,3,0,0.,12.0,0.,12.0,0.,12.0,0.,12.0
1979-08-02 09:33:23.520 ,3,0,0.,12.0,0.,12.0,0.,12.0,0.,12.0
1979-08-02 09:33:35.520 ,2,1,0.,12.0,0.,12.0,0.,12.0,0.,12.0
1979-08-02 09:33:47.520 ,2,1,0.,12.0,0.,12.0,0.,12.0,0.,12.0
1979-08-02 09:33:59.520 ,2,0,0.,12.0,0.,12.0,0.,12.0,0.,12.0
1979-08-02 09:34:11.520 ,2,0,0.,12.0,0.,12.0,0.,12.0,0.,12.0
1979-08-02 09:34:23.520 ,1,1,0.,12.0,0.,12.0,0.,12.0,0.,12.0
1979-08-02 09:34:35.520 ,1,1,0.,12.0,0.,12.0,0.,12.0,0.,12.0
1979-08-02 09:34:47.520 ,1,0,0.,12.0,0.,12.0,0.,12.0,0.,12.0
1979-08-02 09:34:59.520 ,1,0,0.,12.0,0.,12.0,0.,12.0,0.,12.0
1979-08-02 09:35:11.520 ,0,1,0.,12.0,0.,12.0,0.,12.0,0.,12.0
1979-08-02 09:35:23.520 ,0,1,0.,12.0,0.,12.0,0.,12.0,0.,12.0
1979-08-02 09:35:35.520 ,0,0,0.,12.0,0.,12.0,0.,12.0,0.,12.0
1979-08-02 09:35:47.520 ,0,0,0.,12.0,0.,12.0,0.,12.0,0.,12.0
1979-08-02 09:35:59.520 ,0,1,0.,12.0,0.,12.0,0.,12.0,0.,12.0
1979-08-02 09:36:11.520 ,0,1,0.,12.0,0.,12.0,0.,12.0,0.,12.0
1979-08-02 09:36:23.520 ,0,0,0.,12.0,0.,12.0,0.,12.0,0.,12.0
1979-08-02 09:36:35.520 ,0,0,0.,12.0,0.,12.0,0.,12.0,0.,12.0
1979-08-02 09:36:47.520 ,1,1,0.,12.0,0.,12.0,0.,12.0,0.,12.0
1979-08-02 09:36:59.520 ,1,1,0.,12.0,0.,12.0,0.,12.0,0.,12.0
1979-08-02 09:37:11.520 ,1,0,0.,12.0,0.,12.0,0.,12.0,0.,12.0
1979-08-02 09:37:23.520 ,1,0,0.,12.0,0.,12.0,0.,12.0,0.,12.0
1979-08-02 09:37:35.520 ,2,1,0.,12.0,0.,12.0,0.,12.0,0.,12.0
1979-08-02 09:37:47.520 ,2,1,0.,12.0,0.,12.0,0.,12.0,0.,12.0
1979-08-02 09:37:59.520 ,2,0,0.,12.0,0.,12.0,0.,12.0,0.,12.0
1979-08-02 09:38:11.520 ,2,0,0.,12.0,0.,12.0,0.,12.0,0.,12.0
1979-08-02 09:38:23.520 ,3,1,0.,12.0,0.,12.0,0.,12.0,0.,12.0
1979-08-02 09:38:35.520 ,3,1,0.,12.0,0.,12.0,0.,12.0,0.,12.0
1979-08-02 09:38:47.520 ,3,0,0.,12.0,0.,12.0,0.,12.0,0.,12.0
1979-08-02 09:38:59.520 ,3,0,0.,12.0,0.,12.0,0.,12.0,0.,12.0
1979-08-02 09:39:11.520 ,4,1,0.,12.0,0.,12.0,0.,12.0,0.,12.0
1979-08-02 09:39:23.520 ,4,1,0.,12.0,0.,12.0,0.,12.0,0.,12.0
1979-08-02 09:39:35.520 ,4,0,0.,12.0,0.,12.0,0.,12.0,0.,12.0
1979-08-02 09:39:47.520 ,4,0,0.,12.0,0.,12.0,0.,12.0,0.,12.0
1979-08-02 09:39:59.520 ,5,1,0.,12.0,0.,12.0,0.,12.0,0.,12.0
1979-08-02 09:40:11.520 ,5,1,0.,12.0,0.,12.0,0.,12.0,0.,12.0
1979-08-02 09:40:23.520 ,5,0,0.,12.0,0.,12.0,0.,12.0,0.,12.0
1979-08-02 09:40:35.520 ,5,0,0.,12.0,0.,12.0,0.,12.0,0.,12.0
1979-08-02 09:40:47.520 ,6,1,0.,12.0,0.,12.0,0.,12.0,0.,12.0
1979-08-02 09:40:59.520 ,6,1,0.,12.0,0.,12.0,0.,12.0,0.,12.0
1979-08-02 09:41:11.520 ,6,0,0.,12.0,0.,12.0,0.,12.0,0.,12.0
1979-08-02 09:41:23.520 ,6,0,0.,12.0,0.,12.0,0.,12.0,0.,12.0
1979-08-02 09:41:35.520 ,7,1,0.,12.0,0.,12.0,0.,12.0,0.,12.0
1979-08-02 09:41:47.520 ,7,1,0.,12.0,0.,12.0,0.,12.0,0.,12.0
1979-08-02 09:41:59.520 ,7,0,0.,12.0,0.,12.0,0.,12.0,0.,12.0
1979-08-02 09:42:11.520 ,7,0,0.,12.0,0.,12.0,0.,12.0,0.,12.0
1979-08-02 09:42:23.520 ,7,1,0.,12.0,0.,12.0,0.,12.0,0.,12.0
1979-08-02 09:42:35.520 ,7,1,0.,12.0,0.,12.0,0.,12.0,0.,12.0
1979-08-02 09:42:47.520 ,7,0,0.,12.0,0.,12.0,0.,12.0,0.,12.0
1979-08-02 09:42:59.520 ,7,0,0.,12.0,0.,12.0,0.,12.0,0.,12.0
1979-08-02 09:43:11.520 ,6,1,0.,12.0,0.,12.0,0.,12.0,0.,12.0
1979-08-02 09:43:23.520 ,6,1,0.,12.0,0.,12.0,0.,12.0,0.,12.0
1979-08-02 09:43:35.520 ,6,0,0.,12.0,0.,12.0,0.,12.0,0.,12.0
1979-08-02 09:43:47.520 ,6,0,0.,12.0,0.,12.0,0.,12.0,0.,12.0
1979-08-02 09:43:59.520 ,5,1,0.,12.0,0.,12.0,0.,12.0,0.,12.0
1979-08-02 09:44:11.520 ,5,1,0.,12.0,0.,12.0,0.,12.0,0.,12.0
1979-08-02 09:44:23.520 ,5,0,0.,12.0,0.,12.0,0.,12.0,0.,12.0
1979-08-02 09:44:35.520 ,5,0,0.,12.0,0.,12.0,0.,12.0,0.,12.0
1979-08-02 09:44:47.520 ,4,1,0.,12.0,0.,12.0,0.,12.0,0.,12.0
1979-08-02 09:44:59.520 ,4,1,0.,12.0,0.,12.0,0.,12.0,0.,12.0
1979-08-02 09:45:11.520 ,4,0,0.,12.0,0.,12.0,0.,12.0,0.,12.0
1979-08-02 09:45:23.520 ,4,0,0.,12.0,0.,12.0,0.,12.0,0.,12.0
1979-08-02 09:45:35.520 ,3,1,0.,12.0,0.,12.0,0.,12.0,0.,12.0
1979-08-02 09:45:47.520 ,3,1,0.,12.0,0.,12.0,0.,12.0,0.,12.0
1979-08-02 09:45:59.520 ,3,0,0.,12.0,0.,12.0,0.,12.0,0.,12.0
1979-08-02 09:46:11.520 ,3,0,0.,12.0,0.,12.0,0.,12.0,0.,12.0
1979-08-02 09:46:23.520 ,2,1,0.,12.0,0.,12.0,0.,12.0,0.,12.0
1979-08-02 09:46:35.520 ,2,1,0.,12.0,0.,12.0,0.,12.0,0.,12.0
1979-08-02 09:46:47.520 ,2,0,0.,12.0,0.,12.0,0.,12.0,0.,12.0
1979-08-02 09:46:59.520 ,2,0,0.,12.0,0.,12.0,0.,12.0,0.,12.0
1979-08-02 09:47:11.520 ,1,1,0.,12.0,0.,12.0,0.,12.0,1.,12.0
1979-08-02 09:47:23.520 ,1,1,0.,12.0,0.,12.0,0.,12.0,0.,12.0
1979-08-02 09:47:35.520 ,1,0,0.,12.0,0.,12.0,0.,12.0,0.,12.0
1979-08-02 09:47:47.520 ,1,0,0.,12.0,0.,12.0,0.,12.0,0.,12.0
1979-08-02 09:47:59.520 ,0,1,0.,12.0,0.,12.0,0.,12.0,0.,12.0
1979-08-02 09:48:11.520 ,0,1,0.,12.0,0.,12.0,0.,12.0,0.,12.0
1979-08-02 09:48:23.520 ,0,0,0.,12.0,0.,12.0,0.,12.0,0.,12.0
1979-08-02 09:48:35.520 ,0,0,0.,12.0,0.,12.0,0.,12.0,0.,12.0
1979-08-02 09:48:47.520 ,0,1,0.,12.0,0.,12.0,0.,12.0,0.,12.0
1979-08-02 09:48:59.520 ,0,1,0.,12.0,0.,12.0,0.,12.0,0.,12.0
1979-08-02 09:49:11.520 ,0,0,0.,12.0,0.,12.0,0.,12.0,0.,12.0
1979-08-02 09:49:23.520 ,0,0,0.,12.0,0.,12.0,0.,12.0,0.,12.0
1979-08-02 09:49:35.520 ,1,1,0.,12.0,0.,12.0,0.,12.0,0.,12.0
1979-08-02 09:49:47.520 ,1,1,0.,12.0,0.,12.0,0.,12.0,0.,12.0
1979-08-02 09:49:59.520 ,1,0,0.,12.0,0.,12.0,0.,12.0,0.,12.0
1979-08-02 09:50:11.520 ,1,0,0.,12.0,0.,12.0,0.,12.0,0.,12.0
1979-08-02 09:50:23.520 ,2,1,0.,12.0,0.,12.0,0.,12.0,0.,12.0
1979-08-02 09:50:35.520 ,2,1,0.,12.0,0.,12.0,0.,12.0,0.,12.0
1979-08-02 09:50:47.520 ,2,0,0.,12.0,0.,12.0,0.,12.0,0.,12.0
1979-08-02 09:50:59.520 ,2,0,0.,12.0,0.,12.0,0.,12.0,0.,12.0
1979-08-02 09:51:11.520 ,3,1,0.,12.0,0.,12.0,0.,12.0,0.,12.0
1979-08-02 09:51:23.520 ,3,1,0.,12.0,0.,12.0,0.,12.0,0.,12.0
1979-08-02 09:51:35.520 ,3,0,0.,12.0,0.,12.0,0.,12.0,0.,12.0
1979-08-02 09:51:47.520 ,3,0,0.,12.0,0.,12.0,0.,12.0,0.,12.0
1979-08-02 09:51:59.520 ,4,1,0.,12.0,0.,12.0,0.,12.0,0.,12.0
1979-08-02 09:52:11.520 ,4,1,0.,12.0,0.,12.0,0.,12.0,0.,12.0
1979-08-02 09:52:23.520 ,4,0,0.,12.0,0.,12.0,0.,12.0,0.,12.0
1979-08-02 09:52:35.520 ,4,0,0.,12.0,0.,12.0,0.,12.0,0.,12.0
1979-08-02 09:52:47.520 ,5,1,0.,12.0,0.,12.0,0.,12.0,0.,12.0
1979-08-02 09:52:59.520 ,5,1,0.,12.0,0.,12.0,0.,12.0,0.,12.0
1979-08-02 09:53:11.520 ,5,0,0.,12.0,0.,12.0,0.,12.0,0.,12.0
1979-08-02 09:53:23.520 ,5,0,0.,12.0,0.,12.0,0.,12.0,0.,12.0
1979-08-02 09:53:35.520 ,6,1,0.,12.0,0.,12.0,0.,12.0,0.,12.0
1979-08-02 09:53:47.520 ,6,1,0.,12.0,0.,12.0,0.,12.0,0.,12.0
1979-08-02 09:53:59.520 ,6,0,0.,12.0,0.,12.0,0.,12.0,0.,12.0
1979-08-02 09:54:11.520 ,6,0,0.,12.0,0.,12.0,0.,12.0,0.,12.0
1979-08-02 09:54:23.520 ,7,0,0.,12.0,0.,12.0,0.,12.0,0.,12.0
1979-08-02 09:54:35.520 ,7,0,0.,12.0,0.,12.0,0.,12.0,0.,12.0
1979-08-02 09:54:47.520 ,7,0,0.,12.0,0.,12.0,0.,12.0,0.,12.0
1979-08-02 09:54:59.520 ,7,0,0.,12.0,0.,12.0,0.,12.0,0.,12.0
1979-08-02 09:55:11.520 ,4,1,0.,12.0,0.,12.0,0.,12.0,0.,12.0
1979-08-02 09:55:23.520 ,4,1,0.,12.0,0.,12.0,0.,12.0,0.,12.0
1979-08-02 09:55:35.520 ,0,1,0.,12.0,0.,12.0,0.,12.0,0.,12.0
1979-08-02 09:55:47.520 ,0,1,0.,12.0,0.,12.0,0.,12.0,0.,12.0
1979-08-02 09:55:59.520 ,3,1,0.,12.0,0.,12.0,0.,12.0,0.,12.0
1979-08-02 09:56:11.520 ,3,1,0.,12.0,0.,12.0,0.,12.0,0.,12.0
1979-08-02 09:56:23.520 ,7,1,0.,12.0,0.,12.0,0.,12.0,0.,12.0
1979-08-02 09:56:35.520 ,7,1,0.,12.0,0.,12.0,0.,12.0,0.,12.0
1979-08-02 09:56:47.520 ,4,1,0.,12.0,0.,12.0,0.,12.0,0.,12.0
1979-08-02 09:56:59.520 ,4,1,0.,12.0,0.,12.0,0.,12.0,0.,12.0
1979-08-02 09:57:11.520 ,0,1,0.,12.0,0.,12.0,0.,12.0,0.,12.0
1979-08-02 09:57:23.520 ,0,1,0.,12.0,0.,12.0,0.,12.0,0.,12.0
1979-08-02 09:57:35.520 ,3,1,0.,12.0,0.,12.0,0.,12.0,0.,12.0
1979-08-02 09:57:47.520 ,3,1,0.,12.0,0.,12.0,0.,12.0,0.,12.0
1979-08-02 09:57:59.520 ,7,1,0.,12.0,0.,12.0,0.,12.0,0.,12.0
1979-08-02 09:58:11.520 ,7,1,0.,12.0,0.,12.0,0.,12.0,0.,12.0
1979-08-02 09:58:23.520 ,4,1,0.,12.0,0.,12.0,0.,12.0,0.,12.0
1979-08-02 09:58:35.520 ,4,1,0.,12.0,0.,12.0,0.,12.0,0.,12.0
1979-08-02 09:58:47.520 ,0,1,0.,12.0,0.,12.0,0.,12.0,0.,12.0
1979-08-02 09:58:59.520 ,0,1,0.,12.0,0.,12.0,0.,12.0,0.,12.0
1979-08-02 09:59:11.520 ,3,1,0.,12.0,0.,12.0,0.,12.0,0.,12.0
1979-08-02 09:59:23.520 ,3,1,0.,12.0,0.,12.0,0.,12.0,0.,12.0
1979-08-02 09:59:35.520 ,7,1,0.,12.0,0.,12.0,0.,12.0,0.,12.0
1979-08-02 09:59:47.520 ,7,1,0.,12.0,0.,12.0,0.,12.0,0.,12.0
1979-08-02 09:59:59.520 ,4,1,0.,12.0,0.,12.0,0.,12.0,0.,12.0
1979-08-02 10:00:11.520 ,4,1,0.,12.0,0.,12.0,0.,12.0,0.,12.0
1979-08-02 10:00:23.520 ,0,1,0.,12.0,0.,12.0,0.,12.0,0.,12.0
1979-08-02 10:00:35.520 ,0,1,0.,12.0,0.,12.0,0.,12.0,0.,12.0
1979-08-02 10:00:47.520 ,3,1,0.,12.0,0.,12.0,0.,12.0,0.,12.0
1979-08-02 10:00:59.520 ,3,1,0.,12.0,0.,12.0,0.,12.0,0.,12.0
1979-08-02 10:01:11.520 ,7,1,0.,12.0,0.,12.0,0.,12.0,0.,12.0
1979-08-02 10:01:23.520 ,7,1,0.,12.0,0.,12.0,0.,12.0,0.,12.0
1979-08-02 10:01:35.520 ,4,1,0.,12.0,0.,12.0,0.,12.0,0.,12.0
1979-08-02 10:01:47.520 ,4,1,0.,12.0,0.,12.0,0.,12.0,0.,12.0
1979-08-02 10:01:59.520 ,0,1,0.,12.0,0.,12.0,0.,12.0,0.,12.0
1979-08-02 10:02:11.520 ,0,1,0.,12.0,0.,12.0,0.,12.0,0.,12.0
1979-08-02 10:02:23.520 ,3,1,0.,12.0,0.,12.0,0.,12.0,0.,12.0
1979-08-02 10:02:35.520 ,3,1,0.,12.0,0.,12.0,0.,12.0,0.,12.0
1979-08-02 10:02:47.520 ,7,1,0.,12.0,0.,12.0,0.,12.0,0.,12.0
1979-08-02 10:02:59.520 ,7,1,0.,12.0,0.,12.0,0.,12.0,0.,12.0
1979-08-02 10:03:11.520 ,4,1,0.,12.0,0.,12.0,0.,12.0,0.,12.0
1979-08-02 10:03:23.520 ,4,1,0.,12.0,0.,12.0,0.,12.0,0.,12.0
1979-08-02 10:03:35.520 ,0,1,0.,12.0,0.,12.0,0.,12.0,0.,12.0
1979-08-02 10:03:47.520 ,0,1,0.,12.0,0.,12.0,0.,12.0,0.,12.0
1979-08-02 10:03:59.520 ,3,1,0.,12.0,0.,12.0,0.,12.0,0.,12.0
1979-08-02 10:04:11.520 ,3,1,0.,12.0,0.,12.0,0.,12.0,0.,12.0
1979-08-02 10:04:23.520 ,7,1,0.,12.0,0.,12.0,0.,12.0,0.,12.0
1979-08-02 10:04:35.520 ,7,1,0.,12.0,0.,12.0,0.,12.0,0.,12.0
1979-08-02 10:04:47.520 ,4,1,0.,12.0,0.,12.0,0.,12.0,0.,12.0
1979-08-02 10:04:59.520 ,4,1,0.,12.0,0.,12.0,0.,12.0,0.,12.0
1979-08-02 10:05:11.520 ,0,1,0.,12.0,0.,12.0,0.,12.0,0.,12.0
1979-08-02 10:05:23.520 ,0,1,0.,12.0,0.,12.0,0.,12.0,0.,12.0
1979-08-02 10:05:35.520 ,0,0,0.,12.0,0.,12.0,0.,12.0,0.,12.0
1979-08-02 10:05:47.520 ,0,0,0.,12.0,0.,12.0,0.,12.0,0.,12.0
1979-08-02 10:05:59.520 ,0,0,0.,12.0,0.,12.0,0.,12.0,0.,12.0
1979-08-02 10:06:11.520 ,0,0,0.,12.0,0.,12.0,0.,12.0,0.,12.0
1979-08-02 10:06:23.520 ,5,1,0.,12.0,0.,12.0,0.,12.0,0.,12.0
1979-08-02 10:06:35.520 ,5,1,0.,12.0,0.,12.0,0.,12.0,0.,12.0
1979-08-02 10:06:47.520 ,5,0,0.,12.0,0.,12.0,0.,12.0,0.,12.0
1979-08-02 10:06:59.520 ,5,0,0.,12.0,0.,12.0,0.,12.0,0.,12.0
1979-08-02 10:07:11.520 ,4,1,0.,12.0,0.,12.0,0.,12.0,0.,12.0
1979-08-02 10:07:23.520 ,4,1,0.,12.0,0.,12.0,0.,12.0,0.,12.0
1979-08-02 10:07:35.520 ,4,0,0.,12.0,0.,12.0,0.,12.0,0.,12.0
1979-08-02 10:07:47.520 ,4,0,0.,12.0,0.,12.0,0.,12.0,0.,12.0
1979-08-02 10:07:59.520 ,3,1,0.,12.0,0.,12.0,0.,12.0,0.,12.0
1979-08-02 10:08:11.520 ,3,1,0.,12.0,0.,12.0,0.,12.0,0.,12.0
1979-08-02 10:08:23.520 ,3,0,0.,12.0,0.,12.0,0.,12.0,0.,12.0
1979-08-02 10:08:35.520 ,3,0,0.,12.0,0.,12.0,0.,12.0,0.,12.0
1979-08-02 10:08:47.520 ,2,1,0.,12.0,0.,12.0,0.,12.0,0.,12.0
1979-08-02 10:08:59.520 ,2,1,0.,12.0,0.,12.0,0.,12.0,0.,12.0
1979-08-02 10:09:11.520 ,2,0,0.,12.0,0.,12.0,0.,12.0,0.,12.0
1979-08-02 10:09:23.520 ,2,0,0.,12.0,0.,12.0,0.,12.0,0.,12.0
1979-08-02 10:09:35.520 ,1,1,0.,12.0,0.,12.0,0.,12.0,0.,12.0
1979-08-02 10:09:47.520 ,1,1,0.,12.0,0.,12.0,0.,12.0,0.,12.0
1979-08-02 10:09:59.520 ,1,0,0.,12.0,0.,12.0,0.,12.0,0.,12.0
1979-08-02 10:10:11.520 ,1,0,0.,12.0,0.,12.0,0.,12.0,0.,12.0
1979-08-02 10:10:23.520 ,0,1,0.,12.0,0.,12.0,0.,12.0,0.,12.0
1979-08-02 10:10:35.520 ,0,1,0.,12.0,0.,12.0,0.,12.0,0.,12.0
1979-08-02 10:10:47.520 ,0,0,,0,,0,,0,,0
1979-08-02 10:10:59.520 ,0,0,0.,12.0,0.,12.0,0.,12.0,0.,12.0
1979-08-02 10:11:11.520 ,0,1,0.,12.0,0.,12.0,0.,12.0,0.,12.0
1979-08-02 10:11:23.520 ,0,1,0.,12.0,0.,12.0,0.,12.0,0.,12.0
1979-08-02 10:11:35.520 ,0,0,0.,12.0,0.,12.0,0.,12.0,0.,12.0
1979-08-02 10:11:47.520 ,0,0,0.,12.0,0.,12.0,0.,12.0,0.,12.0
1979-08-02 10:11:59.520 ,1,1,0.,12.0,0.,12.0,0.,12.0,0.,12.0
1979-08-02 10:12:11.520 ,1,1,0.,12.0,0.,12.0,0.,12.0,0.,12.0
1979-08-02 10:12:23.520 ,1,0,0.,12.0,0.,12.0,0.,12.0,0.,12.0
1979-08-02 10:12:35.520 ,1,0,0.,12.0,0.,12.0,0.,12.0,0.,12.0
1979-08-02 10:12:47.520 ,2,1,0.,12.0,0.,12.0,0.,12.0,0.,12.0
1979-08-02 10:12:59.520 ,2,1,0.,12.0,0.,12.0,0.,12.0,0.,12.0
1979-08-02 10:13:11.520 ,2,0,0.,12.0,0.,12.0,0.,12.0,0.,12.0
1979-08-02 10:13:23.520 ,2,0,0.,12.0,0.,12.0,0.,12.0,0.,12.0
1979-08-02 10:13:35.520 ,3,1,0.,12.0,0.,12.0,0.,12.0,0.,12.0
1979-08-02 10:13:47.520 ,3,1,0.,12.0,0.,12.0,0.,12.0,0.,12.0
1979-08-02 10:13:59.520 ,3,0,0.,12.0,0.,12.0,0.,12.0,0.,12.0
1979-08-02 10:14:11.520 ,3,0,0.,12.0,0.,12.0,0.,12.0,0.,12.0
1979-08-02 10:14:23.520 ,4,1,0.,12.0,0.,12.0,0.,12.0,0.,12.0
1979-08-02 10:14:35.520 ,4,1,0.,12.0,0.,12.0,0.,12.0,0.,12.0
1979-08-02 10:14:47.520 ,4,0,0.,12.0,0.,12.0,0.,12.0,0.,12.0
1979-08-02 10:14:59.520 ,4,0,0.,12.0,0.,12.0,0.,12.0,0.,12.0
1979-08-02 10:15:11.520 ,5,1,0.,12.0,0.,12.0,0.,12.0,0.,12.0
1979-08-02 10:15:23.520 ,5,1,0.,12.0,0.,12.0,0.,12.0,0.,12.0
1979-08-02 10:15:35.520 ,5,0,0.,12.0,0.,12.0,0.,12.0,0.,12.0
1979-08-02 10:15:47.520 ,5,0,0.,12.0,0.,12.0,0.,12.0,0.,12.0
1979-08-02 10:15:59.520 ,6,1,0.,12.0,0.,12.0,0.,12.0,0.,12.0
1979-08-02 10:16:11.520 ,6,1,0.,12.0,0.,12.0,0.,12.0,0.,12.0
1979-08-02 10:16:23.520 ,6,0,0.,12.0,0.,12.0,0.,12.0,0.,12.0
1979-08-02 10:16:35.520 ,6,0,0.,12.0,0.,12.0,0.,12.0,0.,12.0
1979-08-02 10:16:47.520 ,7,1,0.,12.0,0.,12.0,0.,12.0,0.,12.0
1979-08-02 10:16:59.520 ,7,1,0.,12.0,0.,12.0,0.,12.0,0.,12.0
1979-08-02 10:17:11.520 ,7,0,0.,12.0,0.,12.0,0.,12.0,0.,12.0
1979-08-02 10:17:23.520 ,7,0,0.,12.0,0.,12.0,0.,12.0,0.,12.0
1979-08-02 10:17:35.520 ,7,1,0.,12.0,0.,12.0,0.,12.0,0.,12.0